| time (UTC) | temp F | wind direction | speed MPH | gust MPH | rain 1hr in | rain 24hr in | rain mn in | humidity % | barometer mb |
| 20260504205609 | 68 | 171 | 6.0 | 18.0 | 0.00 | 0.00 | 0.00 | 30 | 1007.4 |
| 20260504205107 | 69 | 86 | 4.0 | 11.0 | 0.00 | 0.00 | 0.00 | 28 | 1007.5 |
| 20260504204609 | 69 | 58 | 4.0 | 13.0 | 0.00 | 0.00 | 0.00 | 29 | 1007.4 |
| 20260504204108 | 69 | 19 | 5.0 | 13.0 | 0.00 | 0.00 | 0.00 | 29 | 1007.5 |
| 20260504203608 | 69 | 146 | 5.0 | 17.0 | 0.00 | 0.00 | 0.00 | 30 | 1007.5 |
| 20260504203340 | 68 | 273 | 6.0 | 17.0 | 0.00 | 0.00 | 0.00 | 30 | 1007.4 |
| 20260504202609 | 68 | 285 | 6.0 | 18.0 | 0.00 | 0.00 | 0.00 | 29 | 1007.4 |
| 20260504202107 | 69 | 46 | 6.0 | 18.0 | 0.00 | 0.00 | 0.00 | 30 | 1007.5 |
| 20260504201608 | 68 | 82 | 6.0 | 13.0 | 0.00 | 0.00 | 0.00 | 30 | 1007.5 |
| 20260504201107 | 68 | 180 | 4.0 | 11.0 | 0.00 | 0.00 | 0.00 | 29 | 1007.6 |
| 20260504200606 | 68 | 22 | 4.0 | 13.0 | 0.00 | 0.00 | 0.00 | 30 | 1007.4 |
| 20260504200108 | 68 | 281 | 4.0 | 13.0 | 0.00 | 0.00 | 0.00 | 29 | 1007.5 |
| 20260504195607 | 68 | 21 | 4.0 | 15.0 | 0.00 | 0.00 | 0.00 | 30 | 1007.6 |
| 20260504195107 | 68 | 302 | 4.0 | 15.0 | 0.00 | 0.00 | 0.00 | 30 | 1007.5 |
| 20260504194605 | 67 | 301 | 6.0 | 15.0 | 0.00 | 0.00 | 0.00 | 30 | 1007.5 |
| 20260504194106 | 68 | 263 | 6.0 | 15.0 | 0.00 | 0.00 | 0.00 | 29 | 1007.6 |
| 20260504193838 | 68 | 13 | 6.0 | 13.0 | 0.00 | 0.00 | 0.00 | 30 | 1007.5 |
| 20260504193104 | 67 | 65 | 6.0 | 13.0 | 0.00 | 0.00 | 0.00 | 30 | 1007.5 |
| 20260504192831 | 68 | 171 | 6.0 | 19.0 | 0.00 | 0.00 | 0.00 | 29 | 1007.5 |
| 20260504192108 | 67 | 69 | 5.0 | 16.0 | 0.00 | 0.00 | 0.00 | 32 | 1007.8 |
| 20260504192102 | 67 | 77 | 6.0 | 19.0 | 0.00 | 0.00 | 0.00 | 30 | 1007.6 |
| 20260504191102 | 67 | 42 | 5.0 | 17.0 | 0.00 | 0.00 | 0.00 | 31 | 1007.8 |
| 20260504190603 | 67 | 213 | 4.0 | 17.0 | 0.00 | 0.00 | 0.00 | 31 | 1007.8 |
| 20260504190332 | 66 | 251 | 5.0 | 17.0 | 0.00 | 0.00 | 0.00 | 31 | 1007.8 |
| 20260504185600 | 66 | 313 | 7.0 | 18.0 | 0.00 | 0.00 | 0.00 | 31 | 1007.9 |
| 20260504185332 | 67 | 258 | 6.0 | 18.0 | 0.00 | 0.00 | 0.00 | 30 | 1007.8 |
| 20260504184556 | 67 | 139 | 6.0 | 15.0 | 0.00 | 0.00 | 0.00 | 31 | 1007.9 |
| 20260504184057 | 66 | 10 | 5.0 | 15.0 | 0.00 | 0.00 | 0.00 | 32 | 1007.7 |
| 20260504183832 | 65 | 325 | 3.0 | 20.0 | 0.00 | 0.00 | 0.00 | 33 | 1007.8 |
| 20260504183054 | 65 | 151 | 4.0 | 20.0 | 0.00 | 0.00 | 0.00 | 32 | 1007.8 |
| 20260504182555 | 65 | 345 | 6.0 | 20.0 | 0.00 | 0.00 | 0.00 | 33 | 1007.8 |
| 20260504182056 | 65 | 292 | 5.0 | 20.0 | 0.00 | 0.00 | 0.00 | 33 | 1007.9 |
| 20260504181555 | 65 | 157 | 5.0 | 15.0 | 0.00 | 0.00 | 0.00 | 32 | 1007.9 |
| 20260504181055 | 65 | 37 | 6.0 | 15.0 | 0.00 | 0.00 | 0.00 | 32 | 1007.9 |
| 20260504180556 | 66 | 329 | 4.0 | 12.0 | 0.00 | 0.00 | 0.00 | 32 | 1007.8 |
| 20260504180054 | 66 | 119 | 5.0 | 11.0 | 0.00 | 0.00 | 0.00 | 32 | 1007.8 |
| 20260504175556 | 66 | 267 | 6.0 | 17.0 | 0.00 | 0.00 | 0.00 | 34 | 1007.7 |
| 20260504175055 | 65 | 86 | 7.0 | 17.0 | 0.00 | 0.00 | 0.00 | 34 | 1007.6 |
| 20260504174555 | 66 | 77 | 5.0 | 12.0 | 0.00 | 0.00 | 0.00 | 34 | 1007.8 |
| 20260504174055 | 66 | 245 | 4.0 | 12.0 | 0.00 | 0.00 | 0.00 | 35 | 1007.5 |
| 20260504173828 | 66 | 32 | 5.0 | 11.0 | 0.00 | 0.00 | 0.00 | 36 | 1007.6 |
| 20260504173055 | 66 | 219 | 7.0 | 16.0 | 0.00 | 0.00 | 0.00 | 35 | 1007.5 |
| 20260504172556 | 66 | 141 | 6.0 | 16.0 | 0.00 | 0.00 | 0.00 | 35 | 1007.5 |
| 20260504172055 | 66 | 24 | 5.0 | 15.0 | 0.00 | 0.00 | 0.00 | 35 | 1007.5 |
| 20260504171555 | 65 | 223 | 6.0 | 16.0 | 0.00 | 0.00 | 0.00 | 34 | 1007.4 |
| 20260504171056 | 65 | 96 | 6.0 | 16.0 | 0.00 | 0.00 | 0.00 | 34 | 1007.2 |
| 20260504170556 | 65 | 217 | 5.0 | 16.0 | 0.00 | 0.00 | 0.00 | 34 | 1007.2 |
| 20260504150550 | 60 | 303 | 2.0 | 8.0 | 0.00 | 0.00 | 0.00 | 36 | 1006.0 |
| 20260504141051 | 55 | 288 | 1.0 | 3.0 | 0.00 | 0.00 | 0.00 | 48 | 1006.2 |
| 20260504140549 | 55 | 288 | 2.0 | 4.0 | 0.00 | 0.00 | 0.00 | 49 | 1006.2 |
| 20260504130542 | 45 | 26 | 0.0 | 2.0 | 0.00 | 0.00 | 0.00 | 63 | 1006.0 |
| 20260504110530 | 39 | 123 | 0.0 | 2.0 | 0.00 | 0.00 | 0.00 | 67 | 1005.9 |
| 20260504100518 | 39 | 123 | 2.0 | 4.0 | 0.00 | 0.00 | 0.00 | 65 | 1006.1 |
| 20260504081741 | 46 | 167 | 0.0 | 3.0 | 0.00 | 0.00 | 0.00 | 55 | 1006.9 |
| 20260504081011 | 47 | 21 | 1.0 | 3.0 | 0.00 | 0.00 | 0.00 | 54 | 1006.9 |
| 20260504080510 | 48 | 21 | 2.0 | 5.0 | 0.00 | 0.00 | 0.00 | 53 | 1007.0 |
| 20260504060225 | 52 | 113 | 2.0 | 4.0 | 0.00 | 0.00 | 0.00 | 51 | 1007.8 |
| 20260504050452 | 49 | 93 | 2.0 | 4.0 | 0.00 | 0.00 | 0.00 | 57 | 1008.3 |
| 20260504045952 | 48 | 135 | 2.0 | 6.0 | 0.00 | 0.00 | 0.00 | 56 | 1008.3 |
| 20260504045450 | 49 | 98 | 3.0 | 6.0 | 0.00 | 0.00 | 0.00 | 54 | 1008.4 |
| 20260504044951 | 49 | 111 | 3.0 | 7.0 | 0.00 | 0.00 | 0.00 | 54 | 1008.3 |
| 20260504044450 | 49 | 131 | 3.0 | 7.0 | 0.00 | 0.00 | 0.00 | 55 | 1008.4 |
| 20260504044220 | 49 | 122 | 2.0 | 5.0 | 0.00 | 0.00 | 0.00 | 54 | 1008.5 |
| 20260504043449 | 49 | 125 | 3.0 | 4.0 | 0.00 | 0.00 | 0.00 | 53 | 1008.5 |
| 20260504042948 | 49 | 132 | 3.0 | 4.0 | 0.00 | 0.00 | 0.00 | 53 | 1008.5 |
| 20260504042449 | 49 | 119 | 2.0 | 4.0 | 0.00 | 0.00 | 0.00 | 50 | 1008.5 |
| 20260504041947 | 50 | 119 | 2.0 | 4.0 | 0.00 | 0.00 | 0.00 | 52 | 1008.6 |
| 20260504041445 | 50 | 96 | 2.0 | 4.0 | 0.00 | 0.00 | 0.00 | 50 | 1008.6 |
| 20260504040944 | 50 | 107 | 2.0 | 4.0 | 0.00 | 0.00 | 0.00 | 50 | 1008.7 |
| 20260504040444 | 51 | 123 | 2.0 | 4.0 | 0.00 | 0.00 | 0.00 | 49 | 1008.7 |
| 20260504035943 | 51 | 113 | 1.0 | 3.0 | 0.00 | 0.00 | 0.00 | 48 | 1008.8 |
| 20260504035443 | 51 | 81 | 1.0 | 2.0 | 0.00 | 0.00 | 0.00 | 47 | 1008.8 |
| 20260504034943 | 52 | 91 | 1.0 | 3.0 | 0.00 | 0.00 | 0.00 | 47 | 1008.8 |
| 20260504034442 | 52 | 89 | 2.0 | 3.0 | 0.00 | 0.00 | 0.00 | 45 | 1008.8 |
| 20260504033943 | 52 | 135 | 2.0 | 7.0 | 0.00 | 0.00 | 0.00 | 45 | 1008.9 |
| 20260504033441 | 52 | 142 | 3.0 | 7.0 | 0.00 | 0.00 | 0.00 | 47 | 1008.9 |
| 20260504032944 | 52 | 121 | 2.0 | 6.0 | 0.00 | 0.00 | 0.00 | 44 | 1008.8 |
| 20260504032443 | 53 | 120 | 2.0 | 4.0 | 0.00 | 0.00 | 0.00 | 44 | 1008.8 |
| 20260504031942 | 53 | 120 | 2.0 | 3.0 | 0.00 | 0.00 | 0.00 | 44 | 1008.8 |
| 20260504031442 | 53 | 120 | 2.0 | 4.0 | 0.00 | 0.00 | 0.00 | 43 | 1008.9 |
| 20260504030942 | 54 | 120 | 3.0 | 5.0 | 0.00 | 0.00 | 0.00 | 42 | 1008.9 |
| 20260504030442 | 54 | 129 | 2.0 | 5.0 | 0.00 | 0.00 | 0.00 | 41 | 1008.9 |
| 20260504025943 | 55 | 130 | 1.0 | 4.0 | 0.00 | 0.00 | 0.00 | 40 | 1008.8 |
| 20260504025441 | 56 | 130 | 1.0 | 2.0 | 0.00 | 0.00 | 0.00 | 39 | 1008.8 |
| 20260504024942 | 56 | 130 | 0.0 | 2.0 | 0.00 | 0.00 | 0.00 | 39 | 1008.7 |
| 20260504024443 | 57 | 130 | 0.0 | 1.0 | 0.00 | 0.00 | 0.00 | 38 | 1008.7 |
| 20260504024211 | 58 | 130 | 1.0 | 2.0 | 0.00 | 0.00 | 0.00 | 37 | 1008.5 |
| 20260504023439 | 59 | 130 | 1.0 | 4.0 | 0.00 | 0.00 | 0.00 | 37 | 1008.5 |
| 20260504022938 | 59 | 130 | 1.0 | 4.0 | 0.00 | 0.00 | 0.00 | 36 | 1008.5 |
| 20260504022435 | 60 | 130 | 1.0 | 5.0 | 0.00 | 0.00 | 0.00 | 36 | 1008.6 |
| 20260504021936 | 61 | 130 | 1.0 | 5.0 | 0.00 | 0.00 | 0.00 | 35 | 1008.5 |
| 20260504021435 | 61 | 163 | 1.0 | 5.0 | 0.00 | 0.00 | 0.00 | 35 | 1008.5 |
| 20260504020936 | 62 | 159 | 1.0 | 4.0 | 0.00 | 0.00 | 0.00 | 34 | 1008.6 |
| 20260504020437 | 62 | 180 | 0.0 | 4.0 | 0.00 | 0.00 | 0.00 | 34 | 1008.6 |
| 20260504015936 | 63 | 181 | 1.0 | 6.0 | 0.00 | 0.00 | 0.00 | 33 | 1008.6 |
| 20260504015432 | 63 | 23 | 1.0 | 6.0 | 0.00 | 0.00 | 0.00 | 33 | 1008.6 |
| 20260504015203 | 63 | 59 | 1.0 | 5.0 | 0.00 | 0.00 | 0.00 | 33 | 1008.5 |
| 20260504014432 | 64 | 90 | 2.0 | 4.0 | 0.00 | 0.00 | 0.00 | 32 | 1008.5 |
| 20260504013931 | 64 | 258 | 2.0 | 7.0 | 0.00 | 0.00 | 0.00 | 32 | 1008.5 |
| 20260504013705 | 64 | 309 | 3.0 | 9.0 | 0.00 | 0.00 | 0.00 | 32 | 1008.5 |
| 20260504012932 | 65 | 254 | 3.0 | 9.0 | 0.00 | 0.00 | 0.00 | 31 | 1008.6 |
| 20260504012703 | 65 | 278 | 3.0 | 11.0 | 0.00 | 0.00 | 0.00 | 31 | 1008.6 |
| 20260504012203 | 65 | 297 | 4.0 | 11.0 | 0.00 | 0.00 | 0.00 | 31 | 1008.6 |
| 20260504011433 | 66 | 298 | 4.0 | 9.0 | 0.00 | 0.00 | 0.00 | 31 | 1008.7 |
| 20260504010933 | 66 | 264 | 4.0 | 9.0 | 0.00 | 0.00 | 0.00 | 31 | 1008.8 |
| 20260504010433 | 67 | 0 | 4.0 | 10.0 | 0.00 | 0.00 | 0.00 | 31 | 1008.9 |
| 20260504010202 | 67 | 304 | 4.0 | 10.0 | 0.00 | 0.00 | 0.00 | 31 | 1008.9 |
| 20260504010048 | 67 | 265 | 4.0 | 11.0 | 0.00 | 0.00 | 0.00 | 31 | 1009.1 |
| 20260504004930 | 67 | 274 | 4.0 | 11.0 | 0.00 | 0.00 | 0.00 | 31 | 1009.1 |
| 20260504004432 | 67 | 305 | 4.0 | 11.0 | 0.00 | 0.00 | 0.00 | 31 | 1008.8 |
| 20260504004159 | 67 | 257 | 5.0 | 38.0 | 0.00 | 0.00 | 0.00 | 30 | 1008.8 |
| 20260504003429 | 67 | 307 | 9.0 | 38.0 | 0.00 | 0.00 | 0.00 | 30 | 1008.9 |
| 20260504002929 | 68 | 227 | 15.0 | 38.0 | 0.00 | 0.00 | 0.00 | 29 | 1009.1 |
| 20260504002428 | 70 | 259 | 12.0 | 38.0 | 0.00 | 0.00 | 0.00 | 26 | 1008.8 |
| 20260504002200 | 71 | 288 | 4.0 | 12.0 | 0.00 | 0.00 | 0.00 | 20 | 1008.4 |
| 20260504001700 | 72 | 281 | 3.0 | 7.0 | 0.00 | 0.00 | 0.00 | 20 | 1007.9 |
| 20260504000927 | 72 | 283 | 2.0 | 8.0 | 0.00 | 0.00 | 0.00 | 20 | 1007.7 |
| 20260504000431 | 73 | 300 | 2.0 | 8.0 | 0.00 | 0.00 | 0.00 | 19 | 1007.9 |
| 20260503235928 | 73 | 318 | 1.0 | 8.0 | 0.00 | 0.00 | 0.00 | 19 | 1007.9 |
| 20260503235658 | 74 | 276 | 2.0 | 9.0 | 0.00 | 0.00 | 0.00 | 19 | 1008.0 |
| 20260503234927 | 74 | 307 | 2.0 | 9.0 | 0.00 | 0.00 | 0.00 | 18 | 1008.0 |
| 20260503234424 | 74 | 289 | 2.0 | 6.0 | 0.00 | 0.00 | 0.00 | 19 | 1008.0 |
| 20260503233925 | 73 | 289 | 3.0 | 7.0 | 0.00 | 0.00 | 0.00 | 20 | 1008.1 |
| 20260503233654 | 73 | 342 | 4.0 | 11.0 | 0.00 | 0.00 | 0.00 | 21 | 1008.1 |
| 20260503232925 | 72 | 285 | 5.0 | 12.0 | 0.00 | 0.00 | 0.00 | 20 | 1008.3 |
| 20260503232423 | 71 | 288 | 5.0 | 12.0 | 0.00 | 0.00 | 0.00 | 21 | 1008.4 |
| 20260503231924 | 71 | 288 | 5.0 | 10.0 | 0.00 | 0.00 | 0.00 | 21 | 1008.4 |
| 20260503231654 | 72 | 237 | 5.0 | 10.0 | 0.00 | 0.00 | 0.00 | 21 | 1008.3 |
| 20260503230924 | 72 | 286 | 5.0 | 10.0 | 0.00 | 0.00 | 0.00 | 20 | 1008.4 |
| 20260503230424 | 73 | 307 | 4.0 | 9.0 | 0.00 | 0.00 | 0.00 | 20 | 1008.3 |
| 20260503225923 | 74 | 323 | 3.0 | 7.0 | 0.00 | 0.00 | 0.00 | 20 | 1008.3 |
| 20260503225423 | 75 | 260 | 3.0 | 5.0 | 0.00 | 0.00 | 0.00 | 19 | 1008.3 |
| 20260503225153 | 76 | 224 | 1.0 | 5.0 | 0.00 | 0.00 | 0.00 | 19 | 1008.1 |
| 20260503224421 | 76 | 351 | 2.0 | 5.0 | 0.00 | 0.00 | 0.00 | 18 | 1008.3 |
| 20260503224152 | 75 | 200 | 2.0 | 6.0 | 0.00 | 0.00 | 0.00 | 19 | 1008.3 |
| 20260503223422 | 74 | 158 | 2.0 | 6.0 | 0.00 | 0.00 | 0.00 | 19 | 1008.3 |
| 20260503222919 | 74 | 143 | 3.0 | 7.0 | 0.00 | 0.00 | 0.00 | 19 | 1008.4 |
| 20260503222421 | 75 | 151 | 2.0 | 7.0 | 0.00 | 0.00 | 0.00 | 18 | 1008.4 |
| 20260503221919 | 76 | 164 | 3.0 | 8.0 | 0.00 | 0.00 | 0.00 | 18 | 1008.4 |
| 20260503221415 | 77 | 184 | 4.0 | 8.0 | 0.00 | 0.00 | 0.00 | 18 | 1008.5 |
| 20260503221149 | 77 | 34 | 4.0 | 9.0 | 0.00 | 0.00 | 0.00 | 18 | 1008.6 |
| 20260503220417 | 77 | 91 | 3.0 | 9.0 | 0.00 | 0.00 | 0.00 | 18 | 1008.5 |
| 20260503220146 | 76 | 338 | 4.0 | 14.0 | 0.00 | 0.00 | 0.00 | 18 | 1008.7 |
| 20260503215416 | 76 | 169 | 4.0 | 14.0 | 0.00 | 0.00 | 0.00 | 18 | 1008.9 |
| 20260503214916 | 76 | 217 | 4.0 | 9.0 | 0.00 | 0.00 | 0.00 | 19 | 1008.9 |
| 20260503214414 | 76 | 76 | 4.0 | 8.0 | 0.00 | 0.00 | 0.00 | 19 | 1009.1 |
| 20260503213914 | 76 | 110 | 4.0 | 8.0 | 0.00 | 0.00 | 0.00 | 19 | 1009.1 |
| 20260503213413 | 75 | 104 | 4.0 | 10.0 | 0.00 | 0.00 | 0.00 | 20 | 1009.3 |
| 20260503212914 | 75 | 298 | 4.0 | 13.0 | 0.00 | 0.00 | 0.00 | 20 | 1009.4 |
| 20260503212415 | 75 | 173 | 4.0 | 13.0 | 0.00 | 0.00 | 0.00 | 20 | 1009.5 |
| 20260503211913 | 74 | 192 | 5.0 | 13.0 | 0.00 | 0.00 | 0.00 | 20 | 1009.6 |
| 20260503211415 | 74 | 259 | 5.0 | 13.0 | 0.00 | 0.00 | 0.00 | 21 | 1009.6 |
| 20260503210914 | 74 | 262 | 4.0 | 9.0 | 0.00 | 0.00 | 0.00 | 21 | 1009.6 |
| 20260503210414 | 74 | 5 | 2.0 | 6.0 | 0.00 | 0.00 | 0.00 | 21 | 1009.9 |
| 20260503205913 | 74 | 319 | 3.0 | 10.0 | 0.00 | 0.00 | 0.00 | 20 | 1010.0 |